Wind_Speed
55 56 55 53 54 55 56 57 56 57 57 57 56 56 56 56 55 56 56 56 55 56 57 58 59 58 55 53 51 48 47 46 45 45 45 44 43 43 43 43 44 45 45 44 43 43 44 44 44 44 45 45 46 45 45 44 44 45 45 46 46 46 47 47 48 48 48 47 47 47 48 49 48 49 49 49 49 49 50 49 49 49 50 50 50
58 59 59 59 57 56 56 57 56 55 54 53 54 55 56 56 55 55 53 52 52 53 53 53 52 52 51 51 49 48 47 47 46 46 45 45 46 46 47 48 48 48 48 48 48 47 47 47 47 47 49 51 50 48 47 46 46 46 47 47 47 47 47 48 49 50 50 50 50 51 51 52 52 52 52 51 52 52 53 53 53 53 53 53 53
56 56 58 60 61 60 57 55 53 49 48 48 50 51 54 56 56 56 55 53 52 52 52 52 52 51 51 50 49 48 48 48 48 48 47 48 48 49 50 50 49 49 49 49 49 49 49 50 51 52 53 55 54 50 47 46 46 46 46 46 47 47 48 48 49 50 51 51 53 54 54 54 55 55 55 55 55 55 56 55 55 55 56 56 56
55 55 55 57 59 60 58 56 54 50 49 50 53 55 56 57 58 57 55 54 53 54 54 54 53 53 52 50 49 49 49 48 49 49 49 48 49 50 51 51 51 50 49 50 51 52 53 54 55 56 56 55 51 46 43 42 42 41 41 42 43 44 46 47 49 51 52 52 54 55 56 56 56 57 57 57 58 57 57 58 57 57 57 58 58
54 56 56 57 58 59 59 58 58 56 54 53 53 54 54 54 55 55 55 55 56 57 56 54 53 53 51 50 50 51 52 52 53 52 51 49 49 49 50 51 51 51 51 51 53 54 55 55 56 56 56 53 48 44 42 41 41 40 40 43 47 48 48 48 50 51 52 52 54 55 56 56 57 58 58 59 59 59 58 58 58 58 58 58 59
52 53 55 57 58 59 60 60 61 61 60 55 50 47 48 50 53 55 56 57 57 57 56 54 53 52 51 51 52 53 54 55 56 56 55 54 53 53 53 53 51 51 51 50 51 53 53 53 54 55 54 52 48 46 46 46 46 46 48 53 57 59 59 57 55 52 50 50 51 53 54 55 56 57 58 59 59 59 59 58 58 58 58 59 59
49 51 53 55 56 57 57 59 60 59 57 55 52 49 49 51 52 54 55 55 56 57 56 54 52 50 51 51 50 51 52 55 58 59 58 56 55 54 53 52 51 50 50 50 52 53 52 51 52 54 53 51 48 48 49 49 50 51 55 59 63 66 69 68 62 57 54 51 49 49 50 50 52 54 56 57 57 57 57 57 58 58 58 58 59
40 41 44 45 48 49 48 51 56 57 56 54 54 54 52 51 52 54 54 53 53 54 55 55 53 52 53 53 52 54 56 57 59 59 57 56 55 54 52 51 52 53 53 54 54 53 51 51 53 53 51 48 47 47 48 49 51 56 61 65 68 70 72 72 67 62 59 56 52 49 48 48 48 50 51 53 54 54 54 55 56 57 57 58 59
35 32 32 33 35 39 42 46 51 54 57 58 59 60 58 56 56 55 51 50 51 52 53 55 54 53 53 53 53 55 56 58 56 51 49 49 48 47 47 47 49 51 52 53 53 51 51 52 54 54 52 51 50 50 51 54 58 63 67 73 75 75 73 71 68 65 63 60 57 54 52 51 50 49 50 51 52 54 54 54 55 56 56 57 58
43 40 37 36 37 40 45 50 53 57 59 62 65 66 64 63 62 56 50 48 49 50 51 53 53 54 53 53 53 54 53 54 52 45 43 45 43 41 44 46 47 49 50 52 52 53 53 53 55 56 58 58 57 57 59 63 66 69 75 80 82 81 77 72 68 66 65 63 60 58 57 56 54 53 53 53 54 54 55 55 56 56 56 56 58
51 49 48 47 47 48 52 56 60 63 64 64 66 67 66 67 69 66 62 60 60 59 59 60 60 61 62 61 61 61 59 58 57 51 49 50 50 49 51 53 53 54 56 57 58 57 56 56 57 59 61 61 61 64 69 71 73 78 83 85 86 84 79 73 69 67 65 64 62 60 59 59 58 55 55 56 56 55 56 56 56 56 57 57 57
56 55 56 57 57 58 61 63 64 65 66 66 67 67 68 70 73 74 75 75 75 74 74 74 73 73 74 72 69 70 70 69 68 65 62 62 62 61 62 62 62 63 64 65 64 60 58 58 59 62 63 65 69 74 77 79 82 86 87 88 87 83 77 73 69 68 66 64 63 62 61 61 60 57 57 58 57 56 56 57 57 57 58 58 59
60 60 61 62 63 65 66 67 67 68 70 71 72 73 75 76 77 77 77 78 78 78 78 78 78 76 76 76 75 76 76 76 75 73 72 71 70 69 70 70 70 70 70 69 66 62 60 62 65 67 71 76 80 83 85 87 88 89 89 89 85 80 74 71 69 67 67 65 64 63 63 63 61 59 59 60 58 57 57 58 59 59 59 60 61
63 63 64 64 64 65 66 66 68 69 70 72 74 76 78 80 82 82 82 82 81 81 80 79 78 77 77 78 78 78 78 79 79 77 75 73 73 74 76 76 74 72 71 69 67 67 69 73 76 79 83 86 88 90 91 91 91 91 89 86 80 75 71 69 68 68 68 67 66 66 65 65 63 62 61 61 59 58 58 58 59 60 60 61 62
68 68 68 68 66 65 65 65 65 66 67 68 70 73 75 78 81 84 85 85 85 85 83 82 81 80 80 80 81 81 80 80 79 78 77 77 77 77 77 75 72 70 69 70 72 76 80 84 85 87 89 92 93 93 93 93 93 91 86 78 73 71 69 68 68 68 68 68 68 68 68 67 66 65 64 64 62 61 60 60 60 61 61 62 63
71 71 70 70 69 69 68 67 67 67 67 67 68 70 71 73 76 79 81 83 85 85 86 86 86 85 84 84 83 82 82 81 80 80 79 79 77 76 75 73 72 72 74 77 81 85 87 88 89 91 93 95 95 95 95 95 92 86 78 72 69 68 66 66 66 66 66 67 67 67 68 68 67 67 66 65 65 64 63 63 62 62 62 62 63
71 71 70 70 70 71 71 72 73 73 74 74 74 75 75 76 77 79 80 81 82 83 84 85 85 84 84 83 82 81 80 80 80 80 80 80 79 78 78 78 79 82 84 87 89 91 92 92 93 94 96 97 97 98 97 94 87 79 72 68 66 65 65 65 63 63 63 64 64 65 65 66 66 66 65 64 64 63 63 63 63 63 62 62 62
70 70 70 71 71 71 72 73 74 76 77 78 79 80 81 82 82 83 83 84 85 85 85 85 84 84 83 82 83 84 83 83 83 83 83 83 84 85 86 87 87 89 91 92 94 96 96 96 96 97 98 100 100 98 94 87 80 74 70 67 64 62 64 64 63 61 60 60 60 61 62 62 63 63 63 62 62 61 60 61 61 61 60 60 60
71 70 70 70 70 69 69 70 72 74 77 79 80 82 83 84 85 86 86 87 88 88 88 88 88 87 86 85 87 88 88 88 88 88 89 89 90 92 93 93 93 93 94 96 97 98 98 98 98 99 99 99 96 92 86 81 77 74 71 68 65 62 62 63 63 61 60 59 59 59 59 59 59 59 59 59 59 58 58 58 58 58 57 57 57
75 73 71 70 69 67 66 67 68 71 73 75 77 79 81 83 85 86 87 89 90 91 91 91 91 91 90 89 90 91 92 92 92 92 93 94 95 96 97 98 97 97 98 99 99 100 99 98 97 96 94 91 88 85 82 79 77 76 73 71 69 65 63 63 63 62 61 60 60 59 58 58 57 57 57 56 56 55 55 55 55 55 54 54 54
78 77 74 73 71 70 68 68 68 69 71 72 73 75 76 77 80 82 83 85 87 89 90 90 91 91 91 90 91 92 93 94 95 95 95 97 97 98 99 100 100 99 98 97 96 95 94 93 92 90 88 85 83 82 81 80 79 78 76 74 72 70 67 65 65 64 63 62 61 60 60 59 58 57 56 55 55 55 54 53 53 54 54 53 54
79 78 76 75 74 74 73 72 71 70 71 72 72 72 72 73 75 76 77 79 81 83 84 84 86 87 86 86 87 88 89 90 91 91 92 93 94 94 95 96 95 94 93 92 89 87 87 87 87 87 85 84 83 82 81 81 80 79 78 77 76 74 72 70 69 68 66 64 63 62 62 62 61 59 58 57 56 56 55 55 55 56 56 56 55
82 80 78 77 77 76 76 75 75 74 74 74 75 75 74 74 74 75 76 78 79 80 80 81 83 84 83 82 82 83 83 84 87 87 87 88 89 90 90 91 91 91 90 89 87 85 85 85 85 85 84 84 84 83 83 82 81 80 80 79 78 77 76 75 73 71 69 68 66 65 65 65 63 62 61 61 60 59 58 57 58 60 60 60 59
84 83 82 82 80 79 79 78 78 78 78 78 78 78 79 79 79 79 79 80 80 81 81 82 83 85 85 83 82 82 81 83 86 87 87 88 89 89 90 91 91 91 91 90 88 87 86 85 84 83 83 82 83 83 83 83 82 81 81 80 79 78 78 77 76 74 72 70 68 68 68 67 65 64 64 64 63 62 61 60 61 61 61 61 62
85 85 85 85 85 85 84 83 83 82 82 81 81 81 82 82 82 83 83 83 84 84 85 85 85 86 87 86 84 83 83 83 86 89 89 89 90 91 92 92 93 93 92 92 90 88 86 85 83 82 81 80 81 81 82 82 82 82 82 81 80 79 78 78 77 76 75 73 71 71 70 68 66 65 65 65 64 63 62 62 62 63 63 62 63
87 87 87 87 88 88 88 88 88 87 86 86 85 85 85 85 85 86 86 85 86 87 88 89 88 89 89 89 88 88 87 86 88 90 92 92 92 93 93 93 93 94 93 92 91 89 86 84 81 80 79 79 80 81 82 82 83 83 82 81 80 79 78 78 78 77 76 75 74 73 72 70 68 67 66 66 65 64 63 63 64 65 64 63 64
89 89 90 90 91 91 92 92 92 91 91 91 90 90 89 90 90 89 89 89 89 89 90 90 90 91 92 91 91 91 91 90 90 92 95 95 94 95 94 94 94 94 94 93 92 90 88 85 83 81 80 80 80 81 81 81 82 82 81 80 79 78 78 78 78 77 76 76 75 74 74 73 72 70 69 68 67 66 65 65 65 66 65 65 64
91 92 93 93 93 94 95 95 95 94 94 94 94 94 94 94 94 93 93 93 92 91 91 92 92 93 93 93 92 92 92 92 92 93 96 98 97 96 96 95 94 94 93 93 92 90 89 87 85 84 83 82 81 81 81 80 80 81 80 79 78 77 77 77 77 76 76 76 76 75 74 74 73 72 71 70 69 68 67 66 66 66 65 65 64
94 94 95 95 96 97 97 97 98 98 98 98 97 97 97 97 97 96 97 96 94 92 92 93 93 93 93 93 93 93 93 93 92 93 97 100 99 97 97 96 94 93 91 89 89 88 87 86 84 83 83 83 82 82 81 80 79 79 79 78 77 76 76 76 76 76 75 75 75 75 74 74 73 72 71 71 69 68 67 67 66 66 65 64 62
97 97 98 98 98 98 98 99 99 100 100 100 99 98 98 98 97 97 97 97 95 93 93 93 93 93 93 93 93 92 92 92 93 94 97 99 99 98 97 96 93 89 85 83 83 84 83 83 82 82 82 82 82 82 82 80 78 76 76 77 77 77 76 75 73 73 73 74 74 73 73 73 73 72 71 70 70 69 68 67 67 66 64 63 61
98 98 98 98 98 98 97 98 99 100 100 99 98 98 97 97 97 96 96 95 94 92 92 93 93 93 92 92 92 91 91 92 93 94 95 97 98 98 97 96 93 87 80 76 76 77 78 78 79 80 80 81 82 82 82 80 77 75 75 76 77 77 76 74 71 70 70 71 72 71 71 72 72 72 71 70 70 68 68 67 66 65 63 60 59
97 97 97 96 96 96 96 97 98 98 98 97 96 96 96 96 96 94 93 93 93 92 91 91 92 93 92 91 89 89 89 90 92 93 94 95 97 97 96 95 92 88 80 75 74 74 74 73 74 76 78 80 82 83 81 79 76 76 77 77 76 75 74 72 69 68 68 68 69 69 69 70 70 71 70 70 69 68 67 66 64 63 60 57 56
95 95 94 94 95 95 96 95 95 96 96 95 94 94 94 93 93 92 90 89 89 89 89 88 89 91 90 88 87 87 87 88 89 90 91 92 95 97 95 93 90 86 81 77 75 73 71 71 71 72 75 78 81 81 79 77 76 77 77 76 74 73 71 70 67 65 65 66 67 66 66 67 68 68 68 68 67 66 65 64 62 59 56 55 54
91 91 90 90 91 91 91 90 90 90 90 89 89 88 88 88 87 87 86 84 83 83 83 83 84 85 86 84 83 84 84 85 85 86 87 89 91 92 92 90 86 81 77 76 74 71 69 69 69 70 71 73 75 75 75 75 75 75 74 73 71 69 68 67 65 63 63 63 64 63 63 63 64 64 64 64 64 63 62 61 58 55 53 52 52
84 84 83 83 84 84 84 83 83 83 83 83 82 82 82 82 82 81 81 80 78 77 77 78 79 79 79 79 78 78 79 78 78 80 82 84 86 87 87 85 81 77 74 72 70 69 67 65 66 67 68 67 67 68 68 69 70 69 68 67 66 65 64 63 62 61 60 60 60 60 59 59 59 59 59 59 59 58 57 56 53 51 50 50 49
78 77 77 77 77 78 78 78 78 77 77 77 77 77 77 76 76 76 76 75 74 73 73 74 74 74 74 74 73 72 71 70 71 73 75 78 80 82 81 80 77 74 71 69 67 65 64 62 63 65 63 60 60 61 61 63 63 62 61 61 60 59 58 58 57 57 56 55 56 55 54 53 53 53 53 53 53 52 51 49 48 46 46 46 45
73 73 73 73 73 73 73 74 74 73 72 72 72 72 72 71 71 71 71 71 70 70 69 68 68 68 69 70 68 65 62 63 65 67 70 73 75 76 76 74 71 69 67 65 64 62 60 60 61 61 59 57 56 55 55 58 58 55 54 54 54 54 53 53 53 52 51 51 51 50 49 48 47 47 47 47 46 46 45 44 43 43 42 42 40
70 70 69 69 68 68 69 69 69 69 68 68 68 67 66 65 65 66 66 66 66 65 64 63 64 64 64 64 63 58 55 57 62 66 68 69 69 69 69 68 66 64 63 63 62 59 57 58 58 57 55 54 51 50 53 55 52 49 49 50 49 49 49 49 48 47 47 46 46 45 44 43 43 42 42 42 41 41 41 40 40 40 39 38 36
66 66 66 65 65 65 65 65 65 64 64 64 64 62 62 62 62 62 62 61 61 60 59 59 60 59 58 58 57 55 55 58 62 63 64 63 62 63 65 64 63 61 59 59 58 56 54 55 55 53 52 50 48 49 52 51 47 45 46 46 45 45 45 44 43 43 43 42 41 40 40 40 39 38 38 38 38 38 37 37 37 37 36 35 34
63 62 62 61 61 61 60 60 60 60 60 60 59 58 58 58 58 59 58 58 57 57 56 56 56 55 53 53 55 56 58 59 58 57 56 57 59 61 62 61 60 58 56 56 56 54 51 51 51 49 48 48 48 48 49 46 44 43 44 43 42 42 41 40 40 39 39 38 38 37 37 37 36 36 35 35 35 35 35 35 35 34 33 33 32
59 58 58 57 56 56 55 55 55 55 55 55 55 55 54 54 55 55 54 54 54 54 54 54 53 51 51 52 54 55 55 55 54 53 53 54 56 58 59 58 57 56 56 55 54 51 48 48 48 47 46 47 47 47 45 43 42 42 41 40 40 39 38 38 37 36 36 36 35 34 34 34 33 33 33 33 33 33 33 33 33 32 32 31 31
55 54 53 52 51 51 50 51 51 51 52 52 52 52 52 51 51 51 50 50 51 51 51 51 51 50 50 50 50 51 51 52 52 52 51 50 50 52 53 54 54 54 53 52 50 48 47 47 46 46 46 46 45 44 43 41 40 40 39 38 38 37 36 36 35 34 33 33 33 32 32 32 32 32 32 31 31 31 31 31 31 31 30 30 29
50 49 49 48 48 47 47 47 47 48 48 49 49 49 48 48 48 47 47 47 47 48 48 48 48 48 49 48 47 48 49 51 51 50 48 45 45 46 48 49 50 50 48 47 46 46 46 46 46 46 45 43 42 42 41 40 39 38 38 37 36 35 35 34 33 32 32 32 31 31 31 30 30 31 30 30 30 30 30 30 30 29 29 28 28
45 45 45 44 44 43 43 43 43 43 43 44 44 45 45 45 45 44 44 44 44 45 45 45 45 45 46 46 45 45 46 47 47 47 45 43 42 42 43 45 46 46 45 44 45 45 46 47 46 45 43 41 41 41 39 38 38 37 36 35 34 34 33 32 31 31 31 31 31 30 30 30 30 30 29 30 30 29 29 29 28 28 28 27 27
42 42 41 41 40 40 39 39 38 38 39 39 40 40 41 41 41 41 41 41 41 42 42 42 41 42 43 42 42 42 43 43 44 43 42 41 39 39 39 41 42 43 43 43 43 44 45 45 44 42 41 41 40 39 38 37 37 35 34 33 33 32 32 31 31 30 30 30 30 29 29 29 29 29 29 29 28 28 27 27 27 27 27 27 26
38 39 38 38 37 36 36 35 35 35 35 35 35 36 36 36 37 37 37 37 38 38 38 39 38 38 39 39 39 39 40 40 40 40 39 38 37 36 36 37 38 39 39 39 41 42 43 43 42 41 41 40 39 37 37 36 35 34 33 32 32 31 31 30 30 30 29 29 29 29 29 29 28 28 28 28 27 27 27 27 27 27 27 26 26
35 35 35 35 35 34 33 33 33 32 32 32 32 32 32 33 33 33 34 34 34 34 34 35 35 35 35 36 36 36 37 37 37 37 36 35 34 34 34 34 34 35 35 37 39 40 40 40 40 40 39 38 37 36 35 34 33 33 32 31 31 30 30 29 29 29 28 28 28 28 28 28 28 28 27 27 27 26 26 26 26 26 26 26 26
33 32 32 32 32 32 32 32 31 31 31 30 30 30 30 30 30 30 30 31 31 31 31 31 31 32 32 32 33 33 33 34 34 33 33 33 32 32 32 31 31 32 33 35 36 36 37 37 38 37 37 36 36 35 34 33 32 32 31 31 30 30 29 29 28 28 28 28 28 28 28 28 28 27 27 27 27 26 26 26 26 26 26 26 26
30 30 30 29 29 30 30 30 30 30 29 29 28 28 28 28 28 28 28 28 28 28 28 28 28 28 29 29 29 30 30 30 30 30 31 31 30 30 30 29 29 30 31 32 32 33 34 35 35 35 35 35 34 33 33 33 32 31 31 30 30 29 29 29 28 28 28 28 28 28 28 28 28 28 28 27 27 26 26 26 26 26 26 26 26
28 28 28 27 27 28 28 28 28 28 28 27 26 26 26 26 25 26 26 26 26 26 25 25 26 26 26 27 27 27 28 28 28 28 28 28 28 28 27 27 27 28 28 29 30 31 32 33 33 33 33 33 33 33 32 32 31 31 30 30 29 29 29 29 29 28 28 28 28 29 29 29 28 28 28 28 27 27 27 26 26 26 26 26 27
27 26 26 26 26 26 26 26 25 25 26 25 25 24 24 24 24 24 24 24 24 24 24 24 24 24 24 24 25 25 25 26 26 26 26 26 26 26 26 25 26 26 27 28 29 30 31 31 32 32 32 32 32 32 32 31 31 31 30 30 30 29 29 29 29 29 29 28 29 29 29 29 29 29 29 28 28 27 27 27 27 27 27 27 27
Wind_Direction
243 247 249 250 252 254 256 257 260 263 266 268 269 270 271 272 273 274 275 276 276 277 278 279 280 281 283 285 287 287 287 287 287 287 288 289 288 288 288 286 285 284 283 282 281 284 287 289 292 296 298 299 296 293 289 286 284 282 281 280 280 278 276 273 270 268 266 264 262 262 262 262 262 263 263 265 266 267 267 267 267 267 267 266 264
248 249 249 251 253 256 257 258 260 262 265 266 267 268 269 271 272 274 274 274 274 275 277 278 280 281 283 285 285 285 285 284 285 285 285 285 285 284 284 284 284 283 282 281 281 283 285 287 290 293 295 297 297 293 289 286 284 283 282 281 280 278 276 274 271 269 267 265 264 262 262 262 263 263 264 265 267 268 267 266 266 266 266 267 265
252 252 252 252 254 256 257 257 258 261 264 265 266 268 270 271 272 273 271 270 270 272 274 276 277 278 279 280 280 281 281 281 281 280 280 279 278 278 278 279 281 281 281 280 280 282 284 286 288 291 293 295 296 293 289 286 284 283 283 282 281 279 277 275 272 270 268 267 265 264 264 264 264 264 265 266 267 268 268 267 266 266 266 267 266
253 253 254 254 255 255 255 255 256 259 262 264 265 267 270 271 270 268 266 266 267 270 273 275 276 277 278 278 278 278 278 277 277 278 278 278 277 276 276 277 279 280 280 280 281 283 285 286 288 290 292 294 294 292 289 287 286 287 287 286 286 285 282 278 275 272 269 268 267 266 266 265 265 266 266 267 267 267 267 267 266 266 266 266 266
250 252 254 255 255 255 254 254 255 257 261 265 266 267 268 266 263 261 261 264 268 271 272 273 274 276 276 275 275 275 274 274 275 275 275 275 275 277 277 278 279 279 279 281 282 283 284 285 286 288 291 294 293 290 290 290 290 291 293 294 296 296 293 289 285 279 273 270 268 267 267 266 266 266 266 266 266 266 266 265 265 265 265 265 264
250 251 252 254 256 258 258 258 258 260 262 262 260 260 262 263 263 264 266 268 270 270 270 270 272 272 271 271 272 273 274 275 274 273 273 274 276 277 279 280 278 276 277 279 281 283 284 285 286 288 292 293 290 289 291 292 292 293 294 297 299 300 299 297 293 286 280 276 272 269 268 267 267 267 266 265 265 265 265 265 264 264 264 264 263
253 253 253 254 257 260 262 263 262 262 260 257 254 255 261 268 270 271 271 270 269 268 267 267 269 270 271 272 272 275 278 277 275 274 276 277 278 279 279 279 278 278 280 282 285 287 286 285 286 289 290 289 286 287 290 291 291 293 295 298 299 300 300 300 295 288 283 279 275 272 271 270 269 269 268 267 266 265 265 265 265 264 263 263 263
252 254 254 255 257 259 261 262 262 261 258 253 251 253 260 268 271 269 269 269 270 270 270 270 270 271 272 272 274 277 278 277 277 280 282 282 282 282 281 280 281 283 285 286 287 286 284 284 285 286 286 285 284 285 287 287 289 291 294 297 299 298 298 298 295 289 284 280 276 272 271 271 270 270 270 269 269 268 266 266 266 266 265 264 263
240 245 247 248 251 254 255 254 255 256 256 254 254 256 259 264 268 267 264 264 267 269 271 272 272 271 271 271 274 277 278 278 280 282 282 283 284 281 278 277 279 281 283 283 283 282 280 281 282 282 282 282 282 282 283 284 287 290 294 297 298 297 295 293 291 288 284 281 277 273 271 270 268 268 268 269 270 270 269 267 266 266 266 265 265
237 236 234 233 236 241 245 245 246 249 254 258 260 262 262 261 263 262 258 258 263 266 267 270 271 271 271 272 273 274 275 279 281 276 271 274 276 273 272 273 274 275 276 277 278 278 277 277 278 279 280 281 281 281 283 286 288 291 294 296 297 296 294 290 286 284 282 280 277 274 272 271 269 267 267 267 268 269 270 269 268 267 266 265 265
238 235 233 231 233 236 239 242 245 249 253 256 258 261 262 260 258 257 255 257 261 263 265 267 270 271 271 272 273 273 272 274 276 272 266 267 269 269 271 273 271 271 273 274 275 276 275 275 275 276 278 278 280 282 286 288 289 292 294 295 296 295 292 288 284 282 280 278 276 274 272 271 269 268 267 267 266 267 268 268 269 269 268 266 265
239 237 237 237 238 240 242 245 247 248 249 250 250 252 254 255 256 257 259 260 261 262 263 265 267 268 269 270 270 272 272 272 274 272 267 267 269 270 272 273 271 271 272 273 274 273 272 273 274 274 275 277 280 284 286 288 290 292 294 294 294 293 290 286 283 281 279 278 276 275 273 272 271 269 268 267 266 265 265 266 266 267 268 268 267
241 239 239 240 241 244 246 247 248 248 247 247 247 247 248 250 252 254 257 260 261 263 264 264 265 266 267 268 269 270 271 272 273 272 269 269 269 271 273 274 273 272 271 271 272 271 271 274 276 276 276 279 282 285 286 288 290 292 293 294 293 290 286 284 281 279 278 277 276 275 274 273 272 270 269 267 265 264 263 263 263 263 264 265 266
248 246 244 244 244 245 246 247 248 248 248 247 247 248 248 249 250 251 253 255 258 260 261 262 263 264 265 267 268 269 270 271 271 271 271 270 271 272 274 274 273 271 270 269 269 270 272 276 278 278 279 281 284 286 287 289 291 292 293 292 289 286 284 282 279 277 276 276 276 276 275 275 274 273 272 270 268 265 264 262 261 261 261 262 262
252 252 251 249 248 247 248 248 249 249 249 249 249 249 250 250 251 251 252 254 256 257 258 259 261 262 264 265 267 267 268 268 268 269 269 270 271 272 272 271 269 268 267 267 269 272 275 278 279 280 282 284 285 287 288 290 291 292 291 289 286 284 283 281 278 277 276 275 275 275 275 275 275 275 275 274 273 271 269 267 265 263 262 261 261
255 254 253 252 251 249 248 249 250 251 252 251 251 252 253 253 253 254 254 255 256 257 258 259 261 262 263 264 265 265 266 266 266 267 268 268 269 268 266 265 265 266 267 269 271 274 276 278 280 281 283 284 286 287 288 289 290 290 288 285 284 284 282 280 279 278 277 276 275 275 275 275 275 275 274 274 273 273 272 270 268 266 265 264 263
256 255 255 254 253 252 250 250 251 252 252 253 253 254 255 256 256 257 257 258 259 259 260 261 261 262 263 263 264 263 263 264 265 266 267 267 266 265 264 265 266 268 270 271 273 275 277 278 280 281 282 283 285 286 287 288 287 285 283 283 283 284 283 282 280 279 278 277 276 276 275 275 275 275 275 274 274 273 272 272 271 269 268 267 266
257 257 256 255 254 254 253 253 253 253 253 253 254 254 255 256 256 257 258 259 260 261 262 262 262 262 262 263 263 263 263 263 264 265 266 266 266 266 267 267 268 269 271 272 273 275 277 278 279 280 281 282 284 285 285 285 284 282 281 281 281 281 282 283 282 281 280 279 278 277 276 276 276 276 276 276 275 274 274 273 272 272 271 270 269
262 261 259 258 257 256 255 254 254 254 253 253 253 254 254 255 256 257 258 258 259 260 261 262 262 262 262 263 263 264 264 264 264 265 266 266 267 268 268 269 269 270 271 272 273 275 276 277 278 279 280 281 282 283 283 282 281 280 280 280 279 279 279 281 282 282 281 280 279 278 277 277 277 276 276 276 276 276 275 275 274 274 273 273 271
269 268 266 265 263 261 259 257 256 255 255 254 254 254 254 255 256 256 257 258 259 259 260 261 261 262 262 262 263 264 265 265 265 265 266 266 267 267 268 269 269 270 271 272 273 274 275 276 277 278 279 280 280 280 280 280 280 280 280 280 279 278 278 278 279 280 280 280 280 280 279 278 277 276 276 276 276 276 275 275 275 275 275 274 274
270 270 270 270 269 267 265 262 260 258 258 257 256 255 255 256 257 258 258 259 260 260 260 261 261 261 262 262 263 263 264 265 265 265 266 266 267 267 268 269 270 270 271 271 273 274 275 276 276 277 277 278 278 279 279 279 280 280 281 281 280 280 279 278 279 279 279 279 279 279 279 279 278 277 277 276 276 276 275 275 275 275 274 274 273
269 269 269 269 270 270 269 268 266 265 263 262 261 259 257 256 257 259 260 261 261 262 262 262 262 262 261 261 262 263 264 265 266 266 266 266 267 268 268 269 270 270 271 271 272 272 273 275 276 277 277 277 277 278 278 279 280 280 281 281 281 281 281 280 280 280 279 279 279 279 278 278 278 278 278 277 277 276 277 278 278 277 277 276 275
272 272 271 270 269 269 269 269 269 268 268 268 267 266 264 262 262 262 262 263 263 263 263 263 264 263 262 262 262 263 264 266 267 267 267 267 268 268 269 270 270 271 271 271 272 272 272 273 275 276 277 277 278 278 278 279 279 279 280 280 280 281 281 281 280 279 279 279 279 278 278 277 277 277 278 278 277 277 277 277 277 277 278 278 278
274 275 275 274 273 272 271 270 269 269 269 269 268 269 268 268 267 267 267 267 266 266 266 265 265 265 265 264 263 263 264 266 267 268 268 268 269 269 270 270 270 271 271 271 271 271 271 271 272 273 274 275 276 278 279 279 279 279 279 279 280 280 280 280 280 280 279 279 278 277 277 276 276 276 276 276 277 277 277 277 277 276 277 277 278
273 274 275 276 276 275 275 274 273 272 272 271 270 270 269 269 268 268 268 268 268 268 268 268 268 268 268 268 267 266 266 266 267 268 268 268 269 269 270 270 271 271 271 271 271 270 270 270 270 270 271 272 274 275 277 278 278 279 279 279 279 279 279 280 280 280 280 280 279 278 277 277 277 276 276 276 276 277 277 278 278 278 278 278 278
271 271 272 273 273 274 274 274 274 274 273 273 272 272 271 271 270 269 268 268 268 268 269 269 269 269 269 269 269 269 268 268 267 268 268 268 268 268 269 270 270 271 272 273 273 273 272 272 271 271 271 272 273 274 274 275 276 277 277 278 278 278 278 279 279 279 279 280 280 279 279 279 279 278 278 278 278 279 279 279 279 280 280 280 280
269 269 270 270 271 272 272 273 273 273 274 273 273 273 273 272 272 271 271 270 269 269 269 270 270 270 270 270 270 270 270 269 269 269 269 269 269 269 269 269 269 270 271 272 273 274 275 275 275 275 274 274 273 273 274 274 275 275 276 276 277 277 277 277 277 278 278 278 278 278 279 279 280 280 280 280 280 280 280 280 280 280 281 281 281
269 270 270 271 272 272 273 273 274 274 274 275 275 274 274 274 274 273 272 271 271 271 270 271 271 271 271 271 271 271 271 271 270 270 270 270 269 269 269 269 269 269 270 271 272 274 275 275 276 276 275 275 274 274 274 274 275 275 275 275 275 276 276 276 276 276 276 276 277 277 278 278 279 279 280 280 280 280 280 281 281 281 281 281 281
271 271 272 272 272 273 273 274 274 275 275 275 275 274 274 274 274 274 273 273 272 271 271 271 270 271 271 271 271 271 271 272 271 271 271 271 271 271 271 270 270 269 270 270 272 272 273 274 274 275 275 275 275 275 275 275 275 275 275 275 275 274 274 274 274 275 275 275 275 276 277 277 277 278 278 279 280 280 280 281 281 281 281 281 282
272 272 272 272 272 273 273 273 274 274 274 274 274 274 273 273 273 273 272 272 272 272 271 271 271 270 270 270 270 270 271 271 271 271 271 272 272 273 273 273 272 271 270 270 270 271 272 274 274 275 275 275 275 275 275 275 275 274 275 275 275 274 273 273 273 273 274 274 275 275 276 276 277 277 277 278 278 279 280 280 280 281 281 282 282
272 272 272 272 272 273 273 273 273 273 273 273 273 273 273 273 272 272 272 272 272 272 271 271 271 270 269 269 269 269 269 269 269 270 270 271 272 272 273 274 275 275 274 273 272 272 272 272 273 274 275 275 275 275 275 275 275 275 275 274 274 274 274 274 274 274 273 273 273 274 274 274 275 276 276 277 277 278 278 279 279 280 281 282 283
272 273 273 273 273 273 273 273 272 272 273 273 273 273 272 272 272 272 271 271 271 271 271 271 270 270 269 268 268 268 267 267 267 268 268 269 270 271 272 273 275 276 277 277 276 275 274 273 273 273 273 273 273 273 274 274 275 276 275 274 274 275 275 275 275 274 273 272 272 272 272 272 272 273 275 276 276 277 278 279 279 280 281 282 283
273 273 273 273 273 273 273 272 272 272 272 272 272 272 272 272 272 271 271 271 270 270 270 270 269 269 269 269 268 268 267 267 266 267 267 268 269 270 271 272 274 275 277 278 278 277 277 275 274 272 270 270 270 272 273 275 275 275 274 275 275 276 276 276 275 274 273 272 271 271 270 270 271 272 273 274 275 276 277 278 279 280 281 281 281
272 272 272 272 272 272 272 272 272 271 271 271 271 271 271 271 271 270 270 270 269 269 269 268 268 268 268 268 268 268 267 267 267 267 267 268 268 269 271 272 273 275 277 278 278 278 277 275 274 272 270 269 270 272 273 273 273 273 274 275 276 276 276 276 276 275 274 273 272 271 270 270 270 271 272 273 274 275 276 277 278 279 280 279 278
272 272 272 272 272 272 272 271 271 271 271 271 271 270 270 270 270 270 269 269 268 268 268 267 267 267 267 267 267 266 266 266 267 267 267 268 268 269 270 272 274 276 277 277 277 277 276 275 274 272 271 270 271 271 272 272 272 273 274 275 276 276 276 276 276 275 274 273 272 271 270 270 270 270 271 272 272 273 274 275 276 277 277 276 277
274 273 273 273 272 272 272 272 272 272 271 271 271 271 270 270 271 271 270 270 269 268 267 267 267 267 267 267 266 265 266 266 266 266 266 267 267 268 270 271 273 275 276 276 275 275 274 273 272 271 271 271 271 271 272 272 273 273 275 275 276 276 276 275 275 274 273 272 271 271 271 270 270 270 270 271 271 272 273 274 274 275 275 275 276
274 273 273 272 272 272 272 272 272 272 271 271 271 271 271 271 271 271 270 270 270 269 268 268 268 267 267 267 266 265 265 265 265 264 263 263 264 266 268 270 271 272 273 272 272 271 271 270 270 270 271 271 271 272 273 272 272 274 275 275 275 275 275 274 273 273 272 272 272 272 272 271 271 270 270 271 271 272 272 273 273 273 274 275 275
274 273 273 273 273 272 272 272 272 272 272 272 272 271 271 271 271 270 270 269 269 268 268 267 267 266 265 266 266 266 264 262 261 260 260 260 262 264 267 268 268 268 268 268 268 268 268 267 268 269 270 271 272 272 271 270 272 274 274 274 274 274 273 273 273 273 272 272 272 272 272 271 271 271 271 271 271 271 272 272 272 273 273 274 275
274 274 274 274 274 274 273 273 273 273 273 273 273 272 272 271 271 270 270 269 269 268 267 266 265 265 265 266 266 264 261 257 255 256 259 262 263 264 265 266 266 265 265 266 267 266 266 266 267 268 269 270 270 268 267 269 272 272 272 272 272 272 272 272 272 272 271 271 271 271 271 271 271 270 270 270 270 270 271 272 272 272 273 274 274
275 275 275 275 274 274 274 274 274 273 273 272 272 272 271 270 269 269 269 269 269 268 267 266 265 265 265 264 263 260 258 256 256 256 258 260 261 262 263 264 265 266 266 266 265 266 266 266 266 267 268 268 267 266 267 269 270 270 270 271 271 271 271 271 271 270 270 270 270 270 270 270 270 270 269 269 269 269 270 270 271 272 273 273 274
276 276 276 275 275 275 274 274 274 273 273 272 272 271 270 270 269 269 269 269 269 268 267 267 266 265 263 261 260 260 260 261 260 258 256 254 256 259 261 262 263 264 264 264 265 267 267 266 266 266 266 265 264 265 266 267 267 268 269 269 269 270 270 269 269 269 269 269 268 268 268 268 268 268 267 267 267 268 268 269 270 271 272 272 272
276 276 276 276 275 275 274 274 273 273 273 273 272 272 271 271 270 269 269 268 268 267 267 266 266 265 263 262 262 263 263 262 261 259 257 255 255 256 258 260 261 261 261 263 265 266 265 265 264 263 262 261 262 263 264 265 265 266 266 267 267 268 267 267 267 267 267 267 267 267 267 266 266 266 266 266 266 266 267 268 269 270 270 270 271
276 276 276 276 276 275 274 274 273 272 272 272 272 272 271 271 271 270 270 269 268 267 266 265 265 264 264 263 262 262 262 261 261 261 261 259 256 255 255 257 258 258 259 260 260 261 260 260 259 258 258 259 260 261 261 262 263 263 264 264 265 265 265 265 265 265 265 265 266 265 265 264 264 264 264 264 265 265 266 266 267 267 268 268 269
277 277 277 277 276 276 275 274 273 272 271 271 271 270 270 270 270 269 269 268 267 267 266 265 265 264 264 263 262 261 261 262 262 262 262 260 257 255 253 254 254 255 255 254 254 254 254 255 255 256 257 258 257 258 259 259 260 260 261 262 262 263 263 263 263 263 263 263 263 263 262 262 261 262 262 263 263 263 263 264 264 265 266 266 267
279 279 279 278 278 277 276 275 274 273 272 271 271 270 270 269 269 268 267 267 266 266 266 265 265 264 264 264 263 262 261 261 261 262 262 260 258 255 253 251 251 251 251 250 250 250 251 252 254 255 255 254 255 256 257 257 257 258 259 259 260 260 260 260 260 260 261 261 261 260 260 259 260 260 260 260 261 261 261 262 262 264 265 266 266
281 281 281 281 280 280 279 278 277 276 274 273 272 271 271 270 269 268 267 266 266 266 266 265 265 264 263 263 263 262 261 261 261 260 260 259 257 255 252 250 250 249 248 248 247 247 248 249 250 250 251 252 253 254 254 255 256 257 257 257 257 257 257 257 258 258 258 258 258 258 257 257 258 258 257 258 258 258 259 260 261 263 264 265 266
282 282 283 283 283 282 281 281 280 279 278 276 275 274 272 271 270 269 268 267 266 266 265 265 265 264 263 262 261 261 260 259 259 259 258 257 255 253 251 249 248 246 245 244 244 244 245 246 247 249 250 251 251 252 253 254 254 254 254 254 255 255 255 255 255 255 255 255 255 255 255 255 255 255 255 256 256 256 257 259 260 261 263 264 266
284 284 284 284 284 283 283 283 282 282 281 279 278 277 275 273 272 270 269 268 267 266 265 265 264 263 262 261 260 259 258 257 257 256 255 254 252 251 250 248 246 244 243 242 242 243 244 244 246 247 248 249 249 250 251 252 252 252 252 252 252 252 252 252 252 253 253 253 252 253 253 253 253 254 254 254 254 255 255 256 258 259 261 263 265
286 285 285 284 284 284 284 284 283 282 281 280 279 278 276 275 274 272 270 269 267 266 265 263 262 261 260 258 257 256 255 254 253 252 251 250 249 248 247 246 245 244 243 242 241 241 241 242 243 244 245 246 247 248 249 249 249 250 250 250 250 250 250 251 251 251 251 251 251 252 252 252 253 253 253 253 253 253 253 254 256 257 259 261 263
287 286 285 285 285 285 285 285 284 282 281 279 278 277 276 275 274 273 271 270 268 266 264 263 261 259 258 256 255 254 252 251 250 249 248 247 247 246 245 244 243 242 242 241 240 239 239 240 241 242 242 244 245 245 246 247 248 248 249 249 249 249 249 249 250 250 250 250 251 251 252 252 252 252 253 253 253 253 253 253 254 255 257 259 261
287 286 286 286 286 286 285 284 283 282 280 279 278 277 276 275 274 273 271 270 268 267 265 262 260 258 256 254 253 252 250 249 247 246 245 244 244 243 243 241 241 240 240 239 239 238 238 238 239 240 241 242 243 244 245 246 247 247 248 248 248 248 248 249 249 250 250 250 251 251 252 253 253 253 253 254 254 253 253 253 254 255 257 258 259
Height
10598 10594 10592 10592 10593 10594 10594 10594 10595 10594 10594 10594 10594 10593 10593 10594 10595 10595 10595 10595 10595 10595 10596 10597 10598 10599 10600 10601 10602 10602 10602 10602 10602 10602 10602 10602 10601 10601 10601 10601 10601 10601 10601 10601 10601 10600 10600 10600 10599 10599 10598 10598 10597 10597 10597 10597 10597 10596 10596 10596 10596 10596 10595 10595 10594 10594 10594 10594 10594 10594 10593 10592 10592 10592 10591 10591 10591 10590 10590 10589 10589 10588 10588 10588 10588
10592 10591 10590 10588 10589 10590 10590 10591 10591 10591 10590 10589 10588 10588 10588 10589 10589 10589 10590 10590 10589 10589 10590 10591 10592 10593 10593 10594 10594 10594 10594 10595 10595 10595 10595 10595 10595 10594 10594 10594 10594 10594 10593 10593 10593 10593 10593 10593 10592 10592 10591 10591 10590 10590 10590 10589 10589 10589 10589 10589 10589 10588 10588 10588 10587 10587 10587 10587 10587 10586 10585 10585 10585 10584 10585 10585 10584 10583 10582 10582 10582 10581 10581 10581 10581
10586 10586 10586 10586 10585 10585 10586 10587 10587 10586 10585 10584 10582 10582 10582 10583 10584 10584 10584 10585 10585 10585 10586 10587 10588 10588 10588 10589 10588 10588 10588 10588 10588 10588 10588 10589 10588 10588 10587 10587 10587 10587 10587 10586 10586 10586 10586 10586 10585 10585 10584 10584 10583 10583 10583 10582 10581 10582 10582 10581 10581 10581 10581 10580 10580 10579 10579 10580 10579 10578 10578 10578 10577 10577 10577 10578 10577 10576 10575 10575 10575 10574 10574 10573 10573
10580 10581 10582 10582 10581 10581 10582 10583 10582 10582 10581 10579 10577 10576 10576 10577 10577 10577 10578 10579 10580 10581 10582 10583 10583 10583 10583 10583 10583 10582 10582 10582 10582 10581 10582 10582 10581 10581 10580 10580 10581 10581 10580 10580 10579 10579 10578 10578 10577 10577 10577 10576 10576 10576 10576 10575 10575 10575 10575 10575 10575 10575 10575 10574 10573 10572 10572 10572 10571 10570 10570 10571 10570 10569 10570 10569 10568 10568 10568 10567 10566 10567 10567 10566 10565
10575 10576 10576 10576 10575 10575 10577 10577 10577 10578 10578 10574 10569 10568 10568 10569 10570 10571 10572 10574 10575 10576 10576 10577 10577 10577 10577 10577 10577 10576 10575 10575 10574 10574 10574 10574 10574 10574 10573 10573 10574 10574 10573 10573 10571 10571 10570 10569 10568 10568 10568 10569 10569 10568 10569 10569 10568 10569 10569 10568 10568 10569 10570 10569 10568 10566 10565 10565 10564 10563 10562 10563 10562 10562 10562 10561 10559 10559 10559 10559 10559 10559 10559 10558 10558
10570 10570 10569 10569 10569 10570 10571 10571 10571 10573 10572 10565 10560 10560 10562 10563 10564 10566 10567 10568 10569 10569 10570 10570 10570 10570 10571 10571 10570 10568 10567 10565 10564 10564 10566 10567 10568 10568 10567 10566 10566 10566 10566 10565 10563 10562 10563 10560 10559 10560 10561 10561 10561 10560 10561 10562 10561 10562 10562 10561 10560 10561 10562 10563 10562 10560 10559 10558 10557 10556 10555 10555 10555 10554 10553 10552 10552 10551 10551 10551 10551 10552 10551 10550 10550
10562 10562 10562 10563 10564 10566 10567 10565 10563 10564 10562 10558 10556 10556 10557 10558 10558 10559 10559 10559 10559 10560 10561 10562 10563 10564 10564 10564 10563 10561 10558 10554 10551 10553 10558 10561 10562 10562 10559 10556 10556 10556 10558 10558 10557 10556 10555 10551 10550 10552 10553 10554 10553 10553 10553 10553 10553 10553 10553 10553 10552 10551 10552 10553 10554 10553 10552 10551 10551 10550 10548 10548 10548 10546 10544 10543 10543 10544 10544 10543 10543 10543 10544 10543 10541
10556 10555 10556 10558 10559 10561 10562 10558 10553 10553 10553 10552 10552 10552 10553 10553 10552 10551 10550 10550 10550 10552 10554 10555 10556 10557 10557 10557 10556 10553 10549 10545 10543 10546 10550 10551 10553 10553 10551 10548 10547 10548 10550 10551 10551 10549 10547 10544 10543 10544 10545 10545 10546 10545 10545 10545 10545 10545 10545 10545 10545 10544 10543 10542 10543 10544 10544 10543 10543 10543 10542 10541 10540 10539 10537 10536 10535 10535 10536 10536 10535 10535 10536 10536 10535
10552 10551 10552 10553 10554 10555 10555 10550 10545 10544 10544 10545 10546 10547 10548 10547 10544 10544 10544 10543 10544 10546 10548 10548 10548 10550 10551 10552 10549 10544 10540 10539 10540 10542 10542 10542 10543 10543 10541 10540 10541 10541 10542 10543 10543 10542 10540 10538 10536 10536 10537 10537 10538 10538 10538 10538 10538 10538 10537 10537 10537 10536 10535 10534 10533 10534 10534 10534 10535 10535 10535 10534 10534 10532 10530 10529 10528 10527 10527 10528 10528 10527 10528 10528 10527
10548 10548 10548 10548 10549 10550 10548 10545 10542 10540 10539 10540 10540 10541 10542 10539 10537 10537 10538 10537 10537 10540 10541 10541 10541 10543 10545 10545 10542 10538 10535 10535 10537 10538 10536 10536 10537 10536 10534 10534 10535 10535 10535 10535 10535 10535 10533 10531 10530 10530 10530 10530 10530 10531 10531 10531 10531 10531 10530 10529 10528 10527 10527 10526 10525 10525 10525 10524 10525 10526 10526 10525 10525 10525 10524 10522 10521 10520 10519 10519 10519 10519 10520 10520 10519
10544 10544 10544 10544 10545 10545 10543 10541 10540 10538 10537 10537 10536 10535 10534 10532 10529 10529 10529 10529 10530 10532 10534 10535 10535 10536 10538 10538 10536 10533 10532 10531 10532 10533 10532 10529 10529 10530 10530 10529 10530 10530 10529 10528 10528 10528 10527 10525 10524 10523 10523 10523 10523 10523 10524 10524 10523 10523 10522 10520 10518 10517 10516 10516 10516 10516 10516 10515 10515 10517 10517 10515 10515 10517 10516 10513 10514 10514 10513 10512 10512 10511 10511 10511 10511
10537 10538 10538 10538 10539 10537 10535 10534 10533 10532 10532 10531 10530 10530 10528 10523 10521 10520 10520 10521 10522 10524 10526 10527 10528 10529 10529 10530 10529 10528 10526 10525 10526 10526 10526 10523 10521 10522 10522 10523 10523 10523 10522 10521 10521 10520 10520 10519 10519 10518 10517 10516 10516 10516 10516 10516 10516 10515 10514 10511 10509 10507 10505 10505 10505 10506 10506 10506 10505 10506 10507 10505 10505 10508 10507 10504 10505 10506 10505 10504 10504 10504 10503 10502 10502
10525 10527 10528 10529 10528 10527 10525 10525 10523 10522 10521 10521 10521 10521 10519 10516 10513 10513 10513 10513 10513 10515 10516 10517 10519 10521 10520 10520 10521 10520 10518 10518 10517 10517 10517 10517 10515 10514 10513 10514 10514 10514 10513 10513 10512 10513 10513 10512 10512 10512 10510 10509 10509 10509 10508 10508 10508 10507 10505 10502 10499 10497 10495 10495 10495 10495 10495 10495 10495 10496 10496 10494 10495 10497 10496 10494 10496 10496 10496 10496 10495 10495 10495 10493 10493
10513 10516 10517 10518 10518 10516 10515 10514 10512 10511 10510 10510 10510 10511 10510 10508 10506 10506 10506 10506 10506 10505 10506 10508 10510 10512 10512 10511 10511 10510 10509 10509 10508 10508 10509 10509 10508 10506 10505 10504 10504 10504 10505 10505 10504 10504 10504 10504 10505 10503 10501 10500 10501 10500 10499 10498 10498 10498 10496 10493 10489 10487 10486 10486 10485 10485 10485 10485 10485 10485 10484 10483 10484 10485 10484 10484 10485 10485 10486 10486 10485 10485 10485 10484 10483
10501 10504 10505 10507 10508 10507 10505 10503 10502 10501 10501 10500 10500 10501 10500 10499 10498 10498 10498 10498 10498 10497 10498 10500 10502 10504 10504 10502 10502 10501 10500 10499 10499 10499 10500 10500 10499 10498 10496 10495 10495 10496 10496 10496 10495 10494 10493 10494 10494 10492 10489 10489 10490 10490 10489 10489 10488 10487 10487 10484 10480 10478 10478 10476 10474 10474 10475 10475 10475 10475 10474 10473 10473 10474 10473 10473 10474 10474 10474 10474 10474 10474 10474 10474 10473
10489 10491 10494 10496 10497 10498 10497 10495 10493 10493 10492 10492 10491 10491 10491 10491 10490 10489 10489 10488 10488 10489 10490 10491 10493 10495 10495 10494 10493 10492 10491 10490 10490 10490 10490 10490 10489 10488 10487 10487 10487 10487 10487 10487 10485 10483 10483 10483 10483 10481 10478 10479 10479 10478 10479 10480 10479 10478 10478 10475 10471 10468 10467 10467 10465 10465 10465 10465 10464 10465 10464 10463 10463 10463 10463 10463 10463 10463 10463 10463 10462 10462 10462 10463 10463
10479 10481 10484 10484 10485 10486 10487 10486 10485 10485 10484 10483 10483 10483 10483 10482 10480 10479 10479 10479 10478 10479 10480 10481 10483 10485 10485 10484 10483 10482 10482 10481 10480 10480 10480 10479 10479 10478 10477 10479 10479 10478 10478 10478 10474 10472 10473 10474 10474 10471 10468 10468 10469 10468 10468 10469 10469 10469 10470 10469 10465 10460 10456 10455 10456 10457 10456 10455 10455 10454 10454 10453 10453 10452 10452 10452 10453 10452 10453 10452 10451 10450 10451 10452 10452
10468 10470 10471 10471 10473 10475 10477 10477 10477 10476 10474 10474 10474 10474 10473 10472 10471 10471 10470 10469 10468 10468 10469 10470 10472 10474 10476 10475 10473 10471 10472 10472 10471 10471 10470 10470 10469 10468 10467 10469 10471 10470 10469 10468 10464 10462 10464 10465 10464 10462 10459 10458 10458 10458 10458 10459 10459 10459 10460 10460 10460 10457 10450 10445 10446 10447 10447 10446 10446 10445 10444 10444 10443 10442 10442 10442 10442 10442 10442 10442 10440 10439 10440 10441 10441
10455 10457 10457 10458 10461 10463 10465 10467 10466 10464 10463 10463 10463 10463 10463 10462 10461 10462 10461 10459 10458 10459 10459 10459 10460 10462 10464 10466 10463 10460 10461 10462 10461 10461 10461 10460 10459 10457 10456 10458 10460 10460 10460 10458 10454 10453 10454 10455 10454 10452 10450 10449 10448 10448 10448 10448 10448 10448 10449 10449 10451 10451 10447 10440 10437 10437 10438 10437 10437 10436 10436 10435 10434 10433 10433 10432 10432 10432 10432 10431 10430 10429 10430 10430 10430
10440 10441 10443 10445 10447 10450 10452 10454 10454 10452 10451 10451 10452 10452 10452 10452 10450 10450 10450 10449 10447 10448 10449 10449 10449 10450 10452 10455 10454 10450 10449 10449 10450 10450 10449 10448 10448 10446 10444 10445 10447 10449 10449 10448 10446 10444 10443 10444 10444 10442 10440 10440 10440 10439 10438 10438 10437 10437 10438 10438 10439 10440 10440 10436 10432 10430 10430 10430 10428 10427 10427 10426 10426 10425 10424 10423 10423 10423 10423 10423 10421 10420 10421 10421 10420
10427 10428 10430 10432 10433 10435 10437 10438 10440 10440 10440 10440 10440 10441 10442 10442 10439 10439 10440 10438 10435 10436 10437 10438 10438 10439 10441 10443 10442 10441 10438 10436 10437 10438 10437 10435 10435 10434 10433 10432 10433 10436 10437 10437 10438 10437 10433 10432 10432 10431 10432 10432 10431 10429 10428 10427 10426 10426 10426 10426 10426 10427 10428 10428 10425 10423 10422 10422 10421 10420 10418 10416 10416 10416 10416 10415 10415 10414 10414 10414 10413 10412 10412 10411 10411
10413 10416 10419 10419 10420 10422 10423 10424 10426 10427 10427 10427 10427 10428 10430 10431 10430 10429 10429 10427 10424 10423 10424 10425 10424 10424 10429 10433 10431 10429 10429 10425 10423 10424 10424 10423 10422 10422 10421 10420 10420 10422 10423 10425 10429 10430 10425 10422 10422 10421 10421 10421 10420 10420 10419 10417 10416 10415 10414 10414 10414 10414 10414 10415 10415 10414 10413 10414 10414 10412 10410 10408 10407 10407 10407 10407 10406 10406 10405 10405 10403 10402 10401 10401 10401
10401 10403 10405 10406 10407 10409 10410 10411 10412 10413 10414 10414 10414 10415 10417 10419 10419 10419 10418 10416 10414 10413 10413 10414 10412 10410 10414 10420 10419 10419 10420 10416 10411 10411 10412 10411 10410 10410 10409 10408 10408 10409 10409 10411 10417 10419 10416 10415 10415 10413 10410 10409 10408 10407 10407 10406 10405 10404 10403 10402 10402 10402 10402 10402 10403 10403 10403 10404 10404 10402 10401 10399 10399 10399 10398 10397 10396 10397 10397 10397 10395 10393 10392 10391 10391
10390 10391 10391 10392 10394 10395 10396 10398 10399 10400 10401 10402 10402 10403 10404 10405 10406 10406 10405 10404 10403 10402 10402 10403 10401 10397 10399 10405 10407 10408 10411 10407 10401 10399 10401 10400 10398 10399 10398 10396 10396 10397 10396 10398 10403 10406 10406 10407 10408 10406 10404 10402 10398 10395 10394 10393 10393 10392 10391 10391 10390 10390 10390 10390 10390 10390 10391 10392 10393 10392 10390 10389 10389 10390 10389 10387 10387 10387 10387 10387 10386 10384 10384 10384 10382
10382 10382 10382 10381 10381 10381 10382 10384 10385 10386 10387 10388 10389 10390 10390 10391 10392 10392 10392 10392 10391 10390 10389 10390 10390 10387 10386 10389 10392 10395 10398 10398 10393 10388 10388 10389 10388 10387 10386 10385 10384 10384 10384 10385 10389 10392 10394 10397 10399 10398 10398 10396 10392 10388 10385 10383 10381 10380 10379 10379 10379 10378 10378 10378 10378 10378 10378 10379 10380 10379 10378 10378 10379 10380 10379 10378 10377 10377 10377 10377 10375 10373 10374 10374 10372
10374 10374 10373 10372 10371 10370 10370 10371 10372 10373 10374 10375 10376 10377 10377 10377 10378 10378 10379 10380 10379 10378 10377 10376 10377 10376 10375 10375 10377 10378 10381 10384 10384 10378 10375 10377 10378 10375 10375 10375 10373 10373 10372 10372 10374 10377 10380 10383 10386 10387 10387 10386 10383 10380 10377 10374 10372 10369 10367 10368 10368 10367 10367 10367 10366 10366 10366 10367 10367 10366 10365 10366 10367 10368 10367 10367 10367 10367 10367 10366 10365 10363 10363 10363 10361
10364 10363 10362 10362 10361 10360 10359 10359 10360 10361 10361 10361 10362 10363 10363 10363 10363 10364 10364 10365 10365 10365 10365 10364 10364 10362 10361 10362 10364 10365 10364 10367 10370 10367 10362 10362 10364 10363 10363 10363 10362 10362 10362 10361 10361 10364 10366 10368 10371 10372 10372 10372 10370 10367 10365 10364 10362 10359 10357 10357 10357 10357 10356 10356 10354 10355 10356 10355 10354 10355 10355 10355 10355 10355 10356 10356 10355 10356 10356 10356 10355 10353 10353 10352 10351
10352 10351 10350 10349 10349 10348 10347 10347 10347 10347 10348 10348 10347 10348 10349 10348 10347 10349 10348 10348 10351 10352 10352 10351 10350 10347 10348 10350 10350 10351 10350 10350 10353 10354 10348 10344 10346 10348 10348 10349 10349 10349 10350 10350 10351 10353 10354 10355 10356 10357 10356 10356 10355 10354 10353 10352 10351 10348 10346 10347 10347 10347 10346 10344 10343 10345 10345 10344 10343 10344 10345 10345 10344 10344 10344 10344 10344 10345 10345 10345 10344 10344 10343 10342 10341
10339 10339 10338 10337 10337 10336 10335 10335 10334 10334 10334 10334 10334 10334 10334 10333 10333 10333 10331 10331 10335 10338 10337 10337 10336 10334 10335 10336 10335 10336 10337 10336 10337 10337 10332 10327 10328 10331 10331 10332 10333 10335 10337 10339 10341 10342 10342 10343 10343 10343 10342 10342 10341 10339 10339 10340 10339 10337 10335 10334 10334 10335 10335 10334 10333 10334 10334 10333 10333 10333 10334 10334 10334 10333 10333 10333 10333 10334 10334 10334 10334 10333 10332 10332 10332
10326 10325 10325 10325 10325 10324 10324 10324 10322 10320 10319 10320 10319 10319 10319 10318 10317 10318 10316 10314 10318 10322 10322 10320 10321 10321 10321 10321 10321 10322 10324 10322 10320 10320 10317 10313 10313 10314 10313 10312 10314 10319 10324 10327 10329 10330 10330 10330 10331 10330 10330 10329 10327 10325 10325 10325 10326 10327 10326 10323 10321 10320 10321 10323 10324 10325 10324 10322 10322 10323 10323 10322 10322 10322 10322 10323 10323 10323 10324 10324 10323 10322 10322 10322 10322
10313 10312 10312 10312 10311 10312 10312 10311 10308 10305 10304 10304 10304 10305 10304 10302 10301 10302 10302 10300 10302 10306 10307 10305 10305 10305 10306 10306 10308 10310 10311 10309 10306 10304 10303 10301 10300 10299 10298 10297 10296 10300 10306 10312 10316 10318 10320 10321 10320 10319 10318 10316 10314 10313 10312 10312 10313 10315 10315 10313 10310 10308 10308 10310 10313 10316 10315 10313 10311 10313 10313 10312 10311 10311 10311 10311 10312 10313 10313 10313 10313 10313 10313 10313 10313
10299 10299 10298 10298 10297 10297 10296 10295 10292 10290 10289 10288 10289 10289 10289 10287 10286 10287 10289 10288 10288 10290 10292 10292 10290 10289 10289 10292 10294 10296 10296 10295 10294 10292 10291 10290 10287 10285 10285 10286 10284 10284 10289 10297 10302 10304 10307 10310 10311 10310 10308 10304 10301 10300 10299 10300 10302 10302 10300 10299 10300 10299 10298 10299 10301 10303 10304 10302 10301 10302 10303 10302 10301 10301 10301 10301 10302 10303 10303 10303 10303 10303 10304 10305 10304
10286 10285 10284 10284 10283 10281 10279 10278 10277 10275 10274 10274 10274 10274 10273 10272 10272 10272 10274 10275 10275 10275 10276 10278 10276 10274 10274 10277 10280 10280 10280 10280 10280 10280 10280 10279 10275 10272 10272 10273 10273 10274 10279 10284 10288 10291 10294 10296 10297 10297 10295 10292 10288 10288 10289 10290 10291 10290 10288 10287 10289 10290 10289 10289 10290 10292 10291 10290 10290 10291 10292 10292 10292 10292 10292 10293 10293 10293 10293 10293 10294 10295 10296 10296 10295
10271 10270 10270 10269 10268 10265 10263 10263 10263 10261 10259 10259 10260 10259 10259 10258 10258 10258 10258 10260 10262 10263 10263 10263 10262 10260 10261 10263 10266 10265 10264 10265 10266 10267 10267 10265 10262 10260 10260 10260 10261 10265 10270 10274 10276 10279 10281 10283 10282 10281 10281 10280 10278 10278 10279 10279 10279 10278 10277 10277 10279 10279 10279 10279 10279 10280 10280 10279 10279 10280 10282 10282 10282 10283 10283 10284 10284 10284 10284 10284 10285 10286 10287 10286 10285
10257 10257 10256 10254 10253 10251 10249 10249 10248 10247 10247 10246 10245 10245 10245 10244 10243 10244 10244 10244 10247 10251 10251 10249 10248 10248 10249 10250 10252 10252 10251 10253 10255 10255 10254 10252 10250 10249 10248 10249 10251 10256 10261 10264 10266 10267 10269 10271 10270 10268 10268 10270 10270 10269 10268 10268 10267 10267 10268 10268 10269 10269 10270 10270 10269 10269 10270 10270 10269 10270 10272 10273 10274 10274 10275 10275 10275 10275 10275 10276 10277 10278 10278 10277 10277
10244 10243 10242 10241 10240 10238 10236 10235 10234 10234 10234 10233 10232 10231 10231 10231 10231 10231 10231 10231 10234 10237 10237 10236 10236 10237 10237 10237 10238 10240 10241 10243 10245 10245 10243 10241 10238 10237 10238 10240 10244 10247 10250 10253 10255 10256 10258 10259 10258 10256 10257 10260 10260 10259 10259 10258 10257 10259 10260 10260 10260 10260 10260 10260 10259 10260 10260 10261 10260 10261 10263 10265 10265 10266 10266 10266 10267 10267 10268 10268 10270 10270 10270 10269 10270
10230 10229 10229 10228 10227 10226 10225 10223 10222 10221 10221 10221 10220 10219 10220 10221 10221 10220 10219 10219 10221 10223 10224 10225 10225 10226 10226 10225 10226 10230 10234 10235 10234 10233 10232 10230 10228 10227 10230 10233 10237 10240 10241 10243 10244 10245 10247 10248 10247 10246 10248 10250 10251 10252 10250 10248 10248 10251 10252 10251 10251 10251 10251 10251 10251 10251 10252 10253 10253 10254 10255 10257 10257 10258 10258 10259 10259 10260 10260 10261 10262 10262 10262 10263 10263
10218 10217 10216 10216 10216 10215 10214 10212 10211 10210 10210 10209 10209 10209 10209 10210 10210 10209 10208 10208 10209 10210 10212 10214 10213 10214 10215 10215 10216 10221 10225 10225 10221 10217 10217 10218 10220 10222 10223 10226 10229 10231 10232 10232 10233 10236 10238 10237 10237 10238 10240 10241 10243 10244 10241 10238 10241 10244 10244 10243 10244 10244 10243 10243 10244 10244 10245 10245 10246 10247 10248 10249 10249 10250 10251 10251 10252 10253 10253 10254 10254 10255 10255 10256 10257
10207 10206 10205 10205 10204 10203 10203 10202 10200 10200 10199 10198 10198 10199 10199 10199 10198 10197 10197 10197 10197 10198 10201 10201 10201 10203 10206 10207 10208 10210 10211 10208 10206 10207 10209 10212 10214 10214 10214 10215 10218 10220 10222 10223 10223 10226 10228 10228 10229 10231 10233 10234 10235 10234 10232 10232 10236 10238 10236 10236 10237 10236 10236 10237 10238 10238 10238 10239 10239 10240 10241 10242 10243 10244 10244 10245 10245 10246 10247 10247 10248 10248 10249 10250 10251
10197 10196 10195 10195 10194 10193 10192 10191 10190 10190 10189 10188 10188 10189 10188 10188 10187 10187 10187 10187 10187 10188 10189 10189 10190 10194 10198 10198 10197 10196 10196 10195 10198 10202 10205 10206 10205 10204 10204 10206 10208 10210 10212 10213 10213 10216 10220 10221 10222 10225 10226 10225 10225 10225 10225 10227 10230 10230 10229 10230 10230 10230 10230 10231 10231 10231 10232 10232 10233 10234 10235 10235 10236 10237 10238 10239 10240 10240 10241 10241 10242 10243 10244 10245 10245
10188 10187 10186 10185 10185 10184 10183 10182 10181 10180 10179 10179 10178 10178 10178 10178 10178 10178 10179 10179 10178 10179 10179 10179 10181 10185 10188 10187 10185 10185 10187 10189 10192 10194 10196 10197 10198 10197 10198 10200 10201 10202 10203 10203 10205 10209 10212 10214 10215 10217 10218 10216 10216 10217 10219 10221 10222 10222 10223 10224 10224 10224 10225 10225 10225 10226 10226 10227 10228 10229 10229 10230 10231 10232 10232 10233 10234 10235 10236 10236 10237 10238 10239 10239 10240
10179 10178 10177 10176 10176 10175 10174 10174 10172 10171 10170 10170 10170 10169 10169 10170 10170 10170 10170 10171 10170 10170 10170 10171 10173 10175 10176 10177 10178 10179 10179 10180 10181 10182 10185 10189 10191 10191 10192 10193 10194 10194 10195 10197 10200 10202 10204 10206 10207 10208 10208 10208 10209 10211 10212 10214 10216 10216 10217 10218 10218 10218 10219 10219 10220 10221 10221 10221 10222 10223 10224 10225 10226 10226 10227 10228 10229 10230 10231 10231 10232 10233 10234 10235 10236
10171 10170 10169 10168 10168 10167 10166 10166 10165 10164 10163 10162 10162 10162 10162 10161 10161 10162 10162 10162 10162 10162 10162 10163 10164 10165 10166 10168 10170 10170 10169 10169 10171 10173 10176 10180 10182 10184 10185 10185 10185 10186 10189 10192 10193 10194 10195 10197 10197 10198 10199 10201 10204 10205 10206 10208 10209 10210 10211 10212 10213 10213 10214 10214 10215 10215 10216 10217 10218 10218 10219 10220 10221 10221 10223 10223 10224 10225 10226 10227 10228 10229 10229 10230 10231
10164 10162 10162 10161 10160 10160 10159 10158 10158 10157 10156 10155 10155 10154 10154 10154 10154 10154 10155 10154 10154 10154 10154 10155 10157 10157 10158 10159 10161 10162 10162 10162 10163 10165 10167 10170 10173 10175 10177 10177 10178 10179 10182 10184 10185 10186 10187 10188 10189 10191 10194 10196 10198 10199 10201 10202 10203 10204 10206 10207 10207 10208 10209 10209 10210 10210 10211 10212 10213 10214 10215 10215 10216 10217 10218 10219 10220 10221 10222 10223 10223 10224 10225 10226 10227
10157 10156 10155 10154 10153 10153 10152 10151 10151 10150 10149 10149 10148 10148 10148 10148 10148 10148 10148 10148 10147 10148 10148 10149 10150 10150 10151 10152 10153 10154 10155 10156 10157 10158 10160 10162 10165 10168 10169 10170 10171 10172 10175 10177 10178 10179 10180 10181 10184 10186 10189 10190 10191 10193 10195 10197 10197 10199 10201 10202 10202 10203 10204 10204 10205 10206 10206 10207 10208 10209 10210 10211 10212 10213 10214 10215 10216 10217 10218 10218 10219 10220 10221 10222 10222
10151 10149 10148 10148 10147 10146 10146 10145 10144 10144 10143 10143 10142 10142 10142 10142 10142 10141 10141 10142 10142 10142 10142 10143 10144 10145 10145 10146 10147 10148 10149 10150 10151 10152 10154 10156 10158 10160 10162 10163 10165 10167 10169 10171 10172 10173 10174 10176 10178 10180 10182 10184 10186 10188 10189 10191 10192 10194 10195 10196 10197 10198 10199 10200 10200 10201 10202 10203 10204 10205 10205 10206 10207 10208 10209 10211 10212 10213 10213 10214 10215 10216 10216 10217 10218
10145 10144 10143 10142 10141 10140 10140 10139 10138 10138 10137 10137 10136 10136 10136 10136 10136 10136 10136 10136 10136 10137 10137 10138 10138 10139 10140 10141 10141 10142 10143 10144 10145 10147 10149 10151 10152 10154 10155 10157 10159 10161 10163 10164 10165 10166 10168 10171 10173 10174 10177 10179 10181 10182 10184 10186 10187 10189 10190 10191 10192 10193 10194 10195 10195 10196 10197 10198 10199 10200 10201 10202 10203 10204 10205 10207 10208 10209 10209 10210 10211 10211 10212 10213 10213
10140 10139 10138 10137 10136 10135 10134 10134 10133 10133 10132 10132 10131 10131 10131 10131 10131 10131 10131 10131 10132 10132 10133 10133 10133 10134 10135 10136 10136 10137 10138 10139 10141 10142 10144 10145 10146 10148 10150 10152 10153 10155 10156 10157 10159 10161 10164 10166 10168 10170 10172 10173 10175 10177 10179 10181 10182 10184 10185 10186 10187 10188 10189 10190 10190 10191 10193 10194 10195 10196 10197 10198 10199 10200 10201 10202 10203 10205 10205 10206 10207 10208 10208 10209 10209
10135 10134 10133 10133 10132 10131 10130 10129 10129 10128 10128 10128 10127 10127 10127 10126 10126 10126 10126 10127 10127 10128 10128 10129 10129 10130 10130 10131 10132 10133 10134 10135 10136 10137 10139 10140 10141 10143 10145 10146 10148 10150 10151 10153 10155 10157 10158 10160 10163 10165 10166 10168 10170 10172 10174 10175 10177 10178 10179 10180 10182 10183 10184 10185 10186 10187 10188 10189 10190 10191 10192 10193 10195 10196 10197 10198 10199 10200 10201 10202 10203 10204 10204 10205 10205
10131 10130 10129 10129 10128 10127 10126 10125 10125 10124 10124 10124 10123 10123 10123 10123 10122 10122 10122 10123 10123 10124 10124 10124 10125 10126 10126 10127 10127 10128 10129 10130 10132 10133 10134 10136 10137 10139 10140 10142 10144 10145 10147 10148 10150 10151 10153 10155 10157 10159 10161 10163 10165 10167 10168 10170 10171 10173 10174 10175 10177 10178 10179 10180 10181 10182 10183 10185 10186 10187 10188 10189 10190 10191 10192 10194 10195 10196 10197 10198 10199 10199 10200 10201 10202
10127 10126 10125 10125 10124 10123 10123 10122 10121 10121 10120 10120 10120 10119 10119 10119 10119 10119 10119 10119 10119 10120 10120 10120 10121 10122 10122 10123 10124 10124 10125 10126 10128 10129 10130 10132 10133 10134 10136 10138 10139 10140 10142 10143 10145 10147 10149 10150 10152 10154 10156 10158 10160 10161 10163 10165 10166 10168 10169 10170 10172 10173 10174 10175 10176 10178 10179 10180 10181 10182 10183 10184 10186 10187 10188 10189 10190 10192 10193 10194 10195 10195 10196 10197 10198